Location: Slidell
(30.2789°N, 89.7378°W)
Time: 18:32:16
(UTC-05:00)

Daily predictions for brighter satellites

Satellite Brightness Start Highest point End
(mag) Time Altitude Azimuth Time Altitude Azimuth Time Altitude Azimuth
Cosmos 1110 Rocket 4.1 19:48:35 10° SSW 19:53:50 88° ESE 19:59:09 10° NNE
Cosmos 1300 4.3 19:53:15 10° SSW 19:56:52 41° W 20:00:30 10° N
Cosmos 1470 Rocket 3.8 19:55:29 10° N 19:59:47 75° W 20:04:05 10° S
Lacrosse 5 3.5 19:56:35 10° WNW 20:01:05 33° WSW 20:05:34 10° S
Helios 1B rocket 3.8 19:59:05 10° NE 20:02:04 19° E 20:05:03 10° SE
FengYun 1-2 T 4.4 19:56:48 10° SSE 20:02:21 62° ENE 20:07:56 10° N
Cosmos 2227 Rocket 2.7 19:56:59 10° NNW 20:02:35 65° WSW 20:08:09 10° S
Cosmos 1850 Rocket 4.4 19:59:39 10° NNW 20:04:47 67° WSW 20:09:54 10° S
SL-16 R/B 3.3 20:00:56 10° SSE 20:05:14 23° E 20:09:33 10° NE
Cosmos 1302 Rocket 4.1 20:00:17 10° S 20:05:18 51° ESE 20:10:20 10° NNE
Cosmos 2082 4.0 20:00:18 10° NNW 20:05:54 72° WSW 20:11:29 10° S
Hubble Space Telescope 2.4 20:05:16 10° WSW 20:08:40 25° SSW 20:12:05 10° SE
Cosmos 1151 Rocket 4.1 20:04:33 10° SSW 20:08:46 50° W 20:12:58 10° N
Milstar 3 3.1 20:01:27 10° W 20:10:50 78° S 20:17:22 10° E
CZ-3 Stage 3 4.3 19:29:49 10° WNW 20:19:52 65° SSW 20:26:28 13° SE
GPS 2-04 Rocket1 2.4 20:17:58 10° WNW 20:21:34 88° NNE 20:24:17 18° ESE
SEDSat Delta rocket 3.7 20:17:54 10° WSW 20:22:58 57° SSE 20:28:23 12° E
OAO 3 Rocket 3.6 20:19:12 10° W 20:24:04 65° NNW 20:28:59 10° ENE
USA 234 4.4 20:20:01 11° E 20:25:12 29° NE 20:30:38 10° NNW
Resurs 01 Rocket 1.6 20:22:33 10° SSE 20:26:59 76° ENE 20:31:26 10° N
Atlas Centaur 2 3.2 20:21:00 10° SW 20:27:26 45° SSE 20:34:13 13° E
Helios 1A 3.9 20:26:48 17° ESE 20:29:14 30° ENE 20:32:56 10° NNE
Cosmos 2360 4.5 20:27:50 10° SSW 20:33:32 74° WNW 20:39:16 10° NNE
FALCON 9 R/B 1.4 20:34:09 10° W 20:36:50 37° NNW 20:38:04 19° NE
GRACE-1 3.7 20:34:18 10° N 20:37:02 67° E 20:38:46 20° S
GRACE-2 3.7 20:34:42 10° N 20:37:26 67° E 20:39:06 20° S
Cosmos 2142 Rocket 4.5 20:33:14 10° SSE 20:39:10 57° E 20:45:10 10° NNE
Sakura Rocket 4.1 20:42:27 10° SSW 20:45:43 24° SSE 20:46:01 24° SSE
Cosmos 1455 3.3 20:45:38 10° SSW 20:49:17 45° W 20:52:56 10° N
Cosmos 1408 3.8 20:47:23 10° NNE 20:50:06 25° ENE 20:50:06 25° ENE
Cosmos 1486 Rocket 4.1 20:46:01 10° N 20:51:11 59° ENE 20:53:58 27° SE
Cosmos 1869 3.2 20:49:18 10° S 20:53:13 90° E 20:57:10 10° N
Cosmos 1992 Rocket 4.1 20:54:10 10° S 20:59:11 50° ESE 21:04:14 10° NNE
CZ-3B DEB 1.0 21:00:01 10° NW 21:03:10 45° WSW 21:03:10 45° WSW
OTV 4 0.5 21:00:35 10° WNW 21:03:10 69° WNW 21:03:10 69° WNW
Gblst 52 Del rocket 4.1 20:57:51 10° NW 21:03:36 77° NE 21:05:47 38° SE
Skynet4D Del rocket 4.5 20:57:28 10° WSW 21:05:34 63° S 21:09:21 31° ESE
CZ-4B DEB 4.4 21:05:39 55° SSE 21:06:23 89° ENE 21:09:56 10° N
Cosmos 2026 Rocket 4.0 21:00:54 10° N 21:07:02 60° E 21:09:53 31° SSE
USA 186 3.1 21:11:06 27° WSW 21:11:30 28° W 21:13:54 10° NW
Cosmos 1933 4.0 21:14:41 40° NE 21:14:41 40° NE 21:17:38 10° NNE
DELTA 2 R/B (1) 3.6 21:11:33 10° WNW 21:17:11 76° NNE 21:18:45 48° E
Cosmos 1315 Rocket 3.8 21:14:31 10° NNW 21:18:25 46° W 21:20:23 25° SSW
YAOGAN 6 4.0 21:20:14 28° NNE 21:20:14 28° NNE 21:22:19 10° N
Cosmos 2322 Rocket 2.6 21:16:24 10° SSW 21:21:56 64° WNW 21:27:31 10° NNE
Cosmos 1503 Rocket 4.0 21:17:10 10° N 21:22:19 57° ENE 21:22:48 54° E
H-2A R/B 4.3 21:24:03 10° NE 21:24:03 10° NE 21:24:12 10° NE
Cosmos 2263 Rocket 3.2 21:19:45 10° N 21:24:22 29° ENE 21:24:22 29° ENE
Cosmos 1354 Rocket 3.9 21:20:27 10° N 21:25:41 62° ENE 21:26:09 59° E
Cosmos 1655 Rocket 3.9 21:22:29 10° N 21:28:53 74° E 21:30:51 46° SSE
Meteor 2-10 Rocket 3.8 21:30:49 55° E 21:30:51 55° E 21:36:31 10° NNE
Cosmos 2360 Rocket 2.6 21:34:16 45° ENE 21:34:16 45° ENE 21:38:30 10° NNE
Cosmos 1862 Rocket 3.6 21:34:03 69° SW 21:34:28 76° W 21:38:56 10° N
Cosmos 1733 Rocket 3.2 21:30:38 10° N 21:34:27 63° NNE 21:34:27 63° NNE
Lacrosse 4 Rocket 2.4 21:36:34 10° NNW 21:39:39 40° NNE 21:39:39 40° NNE
Cosmos 1825 3.3 21:40:20 10° NNW 21:43:20 43° WNW 21:43:20 43° WNW
Envisat 3.9 21:43:00 31° SSW 21:44:52 44° W 21:49:44 10° NNW
Cosmos 1862 4.3 21:41:22 10° N 21:44:08 42° NNW 21:44:08 42° NNW
Cosmos 1939 Rocket 3.9 21:45:37 42° W 21:45:37 42° W 21:49:28 10° NNW
SL-16 R/B 3.6 21:43:50 10° SW 21:49:01 37° WNW 21:54:14 10° N
SPOT 5 4.2 21:54:50 31° NNE 21:54:50 31° NNE 21:57:35 10° N
Centaur AC-42 3.6 21:41:56 10° W 21:56:45 36° SSW 21:57:14 36° SSW
Meteor 1-26 Rocket 4.4 22:06:23 67° NNW 22:06:23 67° NNW 22:11:22 10° N
ATLAS 5 CENTAUR R/B 3.5 22:01:16 10° N 22:05:54 32° NE 22:05:54 32° NE
BREEZE-M DEB (TANK) 4.3 21:50:35 10° NW 22:07:05 66° NNE 22:07:32 64° ENE
USA 234 3.2 22:07:21 69° SSW 22:07:46 71° SW 22:14:20 10° NW
OAO 3 Rocket 4.3 22:03:13 10° WNW 22:07:08 43° NNW 22:07:08 43° NNW
SEDSat Delta rocket 4.0 22:03:43 10° W 22:08:32 66° W 22:08:32 66° W
ARGOS 4.0 22:11:51 42° N 22:11:51 42° N 22:15:27 10° N
Atlas Centaur 2 2.8 22:09:19 10° WSW 22:16:54 82° S 22:16:54 82° S
ERS-1 Rocket 4.2 22:22:11 38° WNW 22:22:11 38° WNW 22:26:04 10° NNW
MOS 1-B Rocket 4.5 22:26:13 55° N 22:26:13 55° N 22:30:35 10° N
SeaSat 1 4.2 22:39:59 29° NNW 22:39:59 29° NNW 22:42:22 10° NNW
USA 229 DEB 4.5 22:51:55 44° WNW 22:52:45 46° NW 22:59:20 10° NNE
USA 229 4.5 22:52:13 46° WNW 22:52:50 47° WNW 22:59:27 10° NNE
Milstar 3 4.0 22:47:26 10° W 22:50:57 31° WSW 22:50:57 31° WSW
H-2A R/B 4.3 23:04:41 20° NNW 23:04:41 20° NNW 23:06:15 10° NNW
Cosmos 2263 Rocket 4.3 23:03:40 10° NW 23:06:06 21° WNW 23:06:06 21° WNW
CZ-4C R/B 4.4 23:40:58 10° N 23:44:54 27° NNE 23:44:54 27° NNE
